sat.trackr.live / text

‹ back to catalog

STARLINK-4390

NORAD 53653 · 2022-105F

PAYLOAD ACTIVE UNKNOWN

§ Identity

Operator
Country
US
Launch date
2022-08-31
Launch site
AFWTR
Launch vehicle
Mass (kg)
RCS (m²)

Purposes: comms

External: N2YO · Heavens-Above · Gunter

§ Orbital elements

Epoch: 2026-09-20T11:50:03.094368Z

Period
89.53 min
Inclination
97.5874°
Eccentricity
0.0002113
Mean motion
16.08329189 rev/d
Perigee alt
250.0 km
Apogee alt
252.8 km
Semi-major
6,629.6 km
B*
5.5481e-4
RAAN
154.8338°
Arg perigee
161.6505°
Mean anomaly
198.4853°
Rev number
22,335

§ Raw data

STARLINK-43901 53653U 22105F   26263.49309137  .00461692  10691-3  55481-3 0  99912 53653  97.5874 154.8338 0002113 161.6505 198.4853 16.08329189223357

JSON: /api/v1/satellites/53653 · /tle

For live sub-satellite position, see the globe view (requires WebGL).

§ Visibility from observer

Set your observer location to see the next 7 days of passes ≥ 10°. The values pass through the URL so the page stays shareable.

No JS? Fill the form by hand. The geolocation button needs JavaScript.